Time,TemperatureF,DewpointF,PressureIn,WindDirection,WindDirectionDegrees,WindSpeedMPH,WindSpeedGustMPH,Humidity,HourlyPrecipIn,Conditions,Clouds,dailyrainin,SoftwareType,DateUTC
2013-01-31 07:02:00,18.0,18.0,-100.00,NNW,327,12.0,20.0,100,-99.99,,,-99.99,,2013-01-31 14:02:00,
2013-01-31 07:11:00,18.0,18.0,-100.00,NNW,327,12.0,20.0,100,-99.99,,,-99.99,,2013-01-31 14:11:00,
2013-01-31 07:21:00,18.0,18.0,-100.00,NW,324,11.0,20.0,100,-99.99,,,-99.99,,2013-01-31 14:21:00,
2013-01-31 07:31:00,18.0,18.0,-100.00,NW,324,11.0,20.0,100,-99.99,,,-99.99,,2013-01-31 14:31:00,
2013-01-31 07:42:00,18.0,18.0,-100.00,NW,324,11.0,20.0,100,-99.99,,,-99.99,,2013-01-31 14:42:00,
2013-01-31 07:52:00,18.0,18.0,-100.00,NW,318,14.0,28.0,100,-99.99,,,-99.99,,2013-01-31 14:52:00,
2013-01-31 08:03:00,18.0,18.0,-100.00,NW,312,10.0,19.0,100,-99.99,,,-99.99,,2013-01-31 15:03:00,
2013-01-31 08:12:00,18.0,18.0,-100.00,NW,312,10.0,19.0,100,-99.99,,,-99.99,,2013-01-31 15:12:00,
2013-01-31 08:22:00,18.0,18.0,-100.00,NW,322,6.0,18.0,100,-99.99,,,-99.99,,2013-01-31 15:22:00,
2013-01-31 08:32:00,18.0,18.0,-100.00,NW,324,9.0,20.0,100,-99.99,,,-99.99,,2013-01-31 15:32:00,
2013-01-31 08:42:00,18.0,18.0,-100.00,NW,324,9.0,20.0,100,-99.99,,,-99.99,,2013-01-31 15:42:00,
2013-01-31 08:52:00,18.0,18.0,-100.00,NW,311,10.0,19.0,100,-99.99,,,-99.99,,2013-01-31 15:52:00,
2013-01-31 09:03:00,19.0,19.0,-100.00,NNW,332,7.0,13.0,100,-99.99,,,-99.99,,2013-01-31 16:03:00,
2013-01-31 09:12:00,19.0,19.0,-100.00,NNW,332,7.0,13.0,100,-99.99,,,-99.99,,2013-01-31 16:12:00,
2013-01-31 09:21:00,19.0,19.0,-100.00,NW,319,10.0,19.0,100,-99.99,,,-99.99,,2013-01-31 16:21:00,
2013-01-31 09:32:00,19.0,19.0,-100.00,NW,319,10.0,19.0,100,-99.99,,,-99.99,,2013-01-31 16:32:00,
2013-01-31 09:41:00,19.0,19.0,-100.00,NW,319,10.0,19.0,100,-99.99,,,-99.99,,2013-01-31 16:41:00,
2013-01-31 09:52:00,19.0,19.0,-100.00,NW,326,8.0,18.0,100,-99.99,,,-99.99,,2013-01-31 16:52:00,
2013-01-31 10:02:00,20.0,20.0,-100.00,NNW,338,8.0,15.0,100,-99.99,,,-99.99,,2013-01-31 17:02:00,
2013-01-31 10:12:00,20.0,20.0,-100.00,NNW,338,8.0,15.0,100,-99.99,,,-99.99,,2013-01-31 17:12:00,
2013-01-31 10:22:00,20.0,20.0,-100.00,NW,321,10.0,17.0,100,-99.99,,,-99.99,,2013-01-31 17:22:00,
2013-01-31 10:31:00,20.0,20.0,-100.00,NW,322,11.0,24.0,100,-99.99,,,-99.99,,2013-01-31 17:31:00,
2013-01-31 10:43:00,20.0,20.0,-100.00,NW,322,11.0,24.0,100,-99.99,,,-99.99,,2013-01-31 17:43:00,
2013-01-31 10:53:00,20.0,20.0,-100.00,NW,325,12.0,22.0,100,-99.99,,,-99.99,,2013-01-31 17:53:00,
2013-01-31 11:02:00,21.0,21.0,-100.00,NNW,330,9.0,17.0,100,-99.99,,,-99.99,,2013-01-31 18:02:00,
2013-01-31 11:12:00,21.0,21.0,-100.00,NNW,330,9.0,17.0,100,-99.99,,,-99.99,,2013-01-31 18:12:00,
2013-01-31 11:21:00,21.0,21.0,-100.00,NNW,333,10.0,21.0,100,-99.99,,,-99.99,,2013-01-31 18:21:00,
2013-01-31 11:32:00,21.0,21.0,-100.00,NW,323,9.0,18.0,100,-99.99,,,-99.99,,2013-01-31 18:32:00,
2013-01-31 11:42:00,21.0,21.0,-100.00,NW,323,9.0,18.0,100,-99.99,,,-99.99,,2013-01-31 18:42:00,
2013-01-31 11:52:00,22.0,22.0,-100.00,NW,321,9.0,20.0,100,-99.99,,,-99.99,,2013-01-31 18:52:00,
2013-01-31 12:02:00,22.0,22.0,-100.00,NW,305,10.0,20.0,100,-99.99,,,-99.99,,2013-01-31 19:02:00,
2013-01-31 12:11:00,22.0,22.0,-100.00,NW,305,10.0,20.0,100,-99.99,,,-99.99,,2013-01-31 19:11:00,
2013-01-31 12:21:00,23.0,23.0,-100.00,NW,321,8.0,16.0,100,-99.99,,,-99.99,,2013-01-31 19:21:00,
2013-01-31 12:32:00,23.0,23.0,-100.00,NNW,335,9.0,17.0,100,-99.99,,,-99.99,,2013-01-31 19:32:00,
2013-01-31 12:42:00,23.0,23.0,-100.00,NNW,335,9.0,17.0,100,-99.99,,,-99.99,,2013-01-31 19:42:00,
2013-01-31 12:52:00,24.0,24.0,-100.00,NNW,332,7.0,15.0,100,-99.99,,,-99.99,,2013-01-31 19:52:00,
2013-01-31 13:02:00,24.0,24.0,-100.00,NW,312,9.0,18.0,100,-99.99,,,-99.99,,2013-01-31 20:02:00,
2013-01-31 13:11:00,24.0,24.0,-100.00,NW,312,9.0,18.0,100,-99.99,,,-99.99,,2013-01-31 20:11:00,
2013-01-31 13:21:00,23.0,23.0,-100.00,NW,306,9.0,20.0,100,-99.99,,,-99.99,,2013-01-31 20:21:00,
2013-01-31 13:31:00,23.0,23.0,-100.00,NW,306,9.0,20.0,100,-99.99,,,-99.99,,2013-01-31 20:31:00,
2013-01-31 13:42:00,23.0,23.0,-100.00,NW,306,9.0,20.0,100,-99.99,,,-99.99,,2013-01-31 20:42:00,
2013-01-31 13:52:00,24.0,24.0,-100.00,NNW,327,9.0,18.0,100,-99.99,,,-99.99,,2013-01-31 20:52:00,
2013-01-31 14:02:00,22.0,22.0,-100.00,NNW,335,8.0,13.0,100,-99.99,,,-99.99,,2013-01-31 21:02:00,
2013-01-31 14:11:00,22.0,22.0,-100.00,NNW,335,8.0,13.0,100,-99.99,,,-99.99,,2013-01-31 21:11:00,
2013-01-31 14:21:00,24.0,24.0,-100.00,NNW,330,5.0,13.0,100,-99.99,,,-99.99,,2013-01-31 21:21:00,
2013-01-31 14:31:00,26.0,26.0,-100.00,NW,313,5.0,15.0,100,-99.99,,,-99.99,,2013-01-31 21:31:00,
2013-01-31 14:42:00,26.0,26.0,-100.00,NW,313,5.0,15.0,100,-99.99,,,-99.99,,2013-01-31 21:42:00,
2013-01-31 14:52:00,26.0,26.0,-100.00,NW,308,9.0,18.0,100,-99.99,,,-99.99,,2013-01-31 21:52:00,
2013-01-31 15:02:00,24.0,24.0,-100.00,NNE,20,10.0,19.0,100,-99.99,,,-99.99,,2013-01-31 22:02:00,
2013-01-31 15:11:00,24.0,24.0,-100.00,NNE,20,10.0,19.0,100,-99.99,,,-99.99,,2013-01-31 22:11:00,
2013-01-31 15:22:00,26.0,26.0,-100.00,East,80,5.0,9.0,100,-99.99,,,-99.99,,2013-01-31 22:22:00,
2013-01-31 15:32:00,29.0,29.0,-100.00,East,98,2.0,5.0,100,-99.99,,,-99.99,,2013-01-31 22:32:00,
2013-01-31 15:42:00,29.0,29.0,-100.00,East,98,2.0,5.0,100,-99.99,,,-99.99,,2013-01-31 22:42:00,
2013-01-31 15:52:00,28.0,28.0,-100.00,West,266,3.0,8.0,100,-99.99,,,-99.99,,2013-01-31 22:52:00,
2013-01-31 16:02:00,26.0,26.0,-100.00,NNW,331,7.0,12.0,100,-99.99,,,-99.99,,2013-01-31 23:02:00,
2013-01-31 16:12:00,26.0,26.0,-100.00,NNW,331,7.0,12.0,100,-99.99,,,-99.99,,2013-01-31 23:12:00,
2013-01-31 16:21:00,24.0,24.0,-100.00,North,350,7.0,16.0,100,-99.99,,,-99.99,,2013-01-31 23:21:00,
2013-01-31 16:31:00,24.0,24.0,-100.00,North,350,7.0,16.0,100,-99.99,,,-99.99,,2013-01-31 23:31:00,
2013-01-31 16:41:00,24.0,24.0,-100.00,North,350,7.0,16.0,100,-99.99,,,-99.99,,2013-01-31 23:41:00,
2013-01-31 16:52:00,24.0,24.0,-100.00,NW,310,7.0,15.0,100,-99.99,,,-99.99,,2013-01-31 23:52:00,
2013-01-31 17:01:00,23.0,23.0,-100.00,NW,325,8.0,14.0,100,-99.99,,,-99.99,,2013-02-01 00:01:00,
2013-01-31 17:11:00,23.0,23.0,-100.00,NW,325,8.0,14.0,100,-99.99,,,-99.99,,2013-02-01 00:11:00,
2013-01-31 17:21:00,23.0,23.0,-100.00,NW,318,9.0,14.0,100,-99.99,,,-99.99,,2013-02-01 00:21:00,
2013-01-31 17:31:00,21.0,21.0,-100.00,NW,326,9.0,14.0,100,-99.99,,,-99.99,,2013-02-01 00:31:00,
2013-01-31 17:42:00,21.0,21.0,-100.00,NW,326,9.0,14.0,100,-99.99,,,-99.99,,2013-02-01 00:42:00,
2013-01-31 17:52:00,20.0,20.0,-100.00,NW,312,5.0,12.0,100,-99.99,,,-99.99,,2013-02-01 00:52:00,
2013-01-31 18:01:00,20.0,20.0,-100.00,NNW,330,4.0,11.0,100,-99.99,,,-99.99,,2013-02-01 01:01:00,
2013-01-31 18:11:00,20.0,20.0,-100.00,NNW,330,4.0,11.0,100,-99.99,,,-99.99,,2013-02-01 01:11:00,
2013-01-31 18:21:00,20.0,20.0,-100.00,North,354,3.0,7.0,100,-99.99,,,-99.99,,2013-02-01 01:21:00,
2013-01-31 18:31:00,20.0,20.0,-100.00,NE,41,3.0,7.0,100,-99.99,,,-99.99,,2013-02-01 01:31:00,
2013-01-31 18:41:00,20.0,20.0,-100.00,NE,41,3.0,7.0,100,-99.99,,,-99.99,,2013-02-01 01:41:00,
2013-01-31 18:52:00,20.0,20.0,-100.00,NNW,327,4.0,12.0,100,-99.99,,,-99.99,,2013-02-01 01:52:00,
2013-01-31 19:01:00,20.0,20.0,-100.00,NW,316,10.0,20.0,100,-99.99,,,-99.99,,2013-02-01 02:01:00,
2013-01-31 19:11:00,20.0,20.0,-100.00,NW,316,10.0,20.0,100,-99.99,,,-99.99,,2013-02-01 02:11:00,
2013-01-31 19:21:00,20.0,20.0,-100.00,NW,322,11.0,16.0,100,-99.99,,,-99.99,,2013-02-01 02:21:00,
2013-01-31 19:31:00,20.0,20.0,-100.00,NW,321,12.0,19.0,100,-99.99,,,-99.99,,2013-02-01 02:31:00,
2013-01-31 19:41:00,20.0,20.0,-100.00,NW,321,12.0,19.0,100,-99.99,,,-99.99,,2013-02-01 02:41:00,
2013-01-31 19:52:00,20.0,20.0,-100.00,NW,314,8.0,15.0,100,-99.99,,,-99.99,,2013-02-01 02:52:00,
2013-01-31 20:01:00,20.0,20.0,-100.00,NW,309,10.0,19.0,100,-99.99,,,-99.99,,2013-02-01 03:01:00,
2013-01-31 20:11:00,20.0,20.0,-100.00,NW,309,10.0,19.0,100,-99.99,,,-99.99,,2013-02-01 03:11:00,
2013-01-31 20:21:00,20.0,20.0,-100.00,NW,314,9.0,14.0,100,-99.99,,,-99.99,,2013-02-01 03:21:00,
2013-01-31 20:32:00,20.0,20.0,-100.00,NW,326,9.0,18.0,100,-99.99,,,-99.99,,2013-02-01 03:32:00,
2013-01-31 20:41:00,20.0,20.0,-100.00,NW,326,9.0,18.0,100,-99.99,,,-99.99,,2013-02-01 03:41:00,
2013-01-31 20:52:00,20.0,20.0,-100.00,NW,319,11.0,18.0,100,-99.99,,,-99.99,,2013-02-01 03:52:00,
2013-01-31 21:02:00,20.0,20.0,-100.00,NW,324,11.0,18.0,100,-99.99,,,-99.99,,2013-02-01 04:02:00,
2013-01-31 21:11:00,20.0,20.0,-100.00,NW,324,11.0,18.0,100,-99.99,,,-99.99,,2013-02-01 04:11:00,
2013-01-31 21:21:00,20.0,20.0,-100.00,NW,322,10.0,16.0,100,-99.99,,,-99.99,,2013-02-01 04:21:00,
2013-01-31 21:31:00,20.0,20.0,-100.00,NNW,329,6.0,12.0,100,-99.99,,,-99.99,,2013-02-01 04:31:00,
2013-01-31 21:41:00,20.0,20.0,-100.00,NNW,329,6.0,12.0,100,-99.99,,,-99.99,,2013-02-01 04:41:00,
2013-01-31 21:52:00,20.0,20.0,-100.00,NW,323,5.0,8.0,100,-99.99,,,-99.99,,2013-02-01 04:52:00,
2013-01-31 22:03:00,20.0,20.0,-100.00,NNW,335,6.0,9.0,100,-99.99,,,-99.99,,2013-02-01 05:03:00,
2013-01-31 22:11:00,20.0,20.0,-100.00,NNW,335,6.0,9.0,100,-99.99,,,-99.99,,2013-02-01 05:11:00,
2013-01-31 22:22:00,20.0,20.0,-100.00,NNW,340,7.0,11.0,100,-99.99,,,-99.99,,2013-02-01 05:22:00,
2013-01-31 22:31:00,20.0,20.0,-100.00,NNW,335,6.0,10.0,100,-99.99,,,-99.99,,2013-02-01 05:31:00,
2013-01-31 22:41:00,20.0,20.0,-100.00,NNW,335,6.0,10.0,100,-99.99,,,-99.99,,2013-02-01 05:41:00,
2013-01-31 22:52:00,21.0,21.0,-100.00,NW,319,5.0,9.0,100,-99.99,,,-99.99,,2013-02-01 05:52:00,
2013-01-31 23:02:00,20.0,20.0,-100.00,NNW,334,5.0,7.0,100,-99.99,,,-99.99,,2013-02-01 06:02:00,
2013-01-31 23:11:00,20.0,20.0,-100.00,NNW,334,5.0,7.0,100,-99.99,,,-99.99,,2013-02-01 06:11:00,
2013-01-31 23:21:00,20.0,20.0,-100.00,NNW,330,6.0,9.0,100,-99.99,,,-99.99,,2013-02-01 06:21:00,
2013-01-31 23:32:00,20.0,20.0,-100.00,NNW,335,6.0,10.0,100,-99.99,,,-99.99,,2013-02-01 06:32:00,
2013-01-31 23:41:00,20.0,20.0,-100.00,NNW,335,6.0,10.0,100,-99.99,,,-99.99,,2013-02-01 06:41:00,
2013-01-31 23:52:00,20.0,20.0,-100.00,NNW,339,5.0,9.0,100,-99.99,,,-99.99,,2013-02-01 06:52:00,